Location: *
(46.1200°N, 11.2700°E)
Time: 05:20:13
(UTC+00:00)

Okean 1 - Pass Details

Date: 02 March 2021
Orbit: 539 x 553 km, 82.5° (Epoch: 13 April)

Event Time Altitude Azimuth Distance (km) Brightness Sun altitude
Rises 17:58:52 0° 352° (N) 2,731 7.0 -10.5°
Reaches altitude 10° 18:01:03 10° 355° (N) 1,834 6.1 -10.9°
Maximum altitude 18:05:05 72° 80° (E) 583 3.2 -11.6°
Drops below altitude 10° 18:09:06 10° 165° (SSE) 1,826 5.8 -12.3°
Sets 18:11:16 0° 168° (SSE) 2,717 6.7 -12.6°
